Location: The Saddle
(36.8333°N, 80.3417°W)
Time: 16:40:06
(UTC-05:00)

A-11 Canister half - Pass Details

Date: 11 December 2023
Orbit: 1512 x 1687 km, 47.2° (Epoch: 29 February)

Event Time Altitude Azimuth Distance (km) Brightness Sun altitude
Rises 00:31:40 0° 266° (W) 4,708 - -75.6°
Reaches altitude 10° 00:34:50 10° 272° (W) 3,747 - -75.5°
Maximum altitude 00:44:03 51° 347° (NNW) 1,953 - -74.7°
Drops below altitude 10° 00:53:38 10° 61° (ENE) 3,886 - -73.8°
Sets 00:56:59 0° 67° (ENE) 4,895 - -73.4°
Exits shadow 00:57:04 - 67° (ENE) 4,918 11.8 -73.4°
